Index of /debian/pool/main/k/

NameLast ModifiedSizeType
Parent Directory/ -  Directory
k3b/2017-Jun-19 18:30:47-  Directory
k3d/2017-Jun-19 18:30:49-  Directory
k4dirstat/2017-Jun-19 18:30:53-  Directory
k8temp/2013-Mar-18 15:15:55-  Directory
kaa-base/2017-May-10 13:31:16-  Directory
kaa-imlib2/2017-May-10 13:31:16-  Directory
kaa-metadata/2017-May-10 13:31:16-  Directory
kabikaboo/2011-Oct-06 19:02:40-  Directory
kaccessible/2017-Jun-19 18:30:53-  Directory
kaccounts-integration/2017-Jun-19 18:30:53-  Directory
kaccounts-providers/2017-Jun-19 18:30:54-  Directory
kactivities/2017-Jun-19 18:30:55-  Directory
kactivities-kf5/2017-Jun-19 18:30:54-  Directory
kactivities-stats/2017-Jun-19 18:30:54-  Directory
kactivitymanagerd/2017-Jun-19 18:30:55-  Directory
kadu/2017-Jun-19 18:31:00-  Directory
kadu-mime-tex/2016-Mar-02 22:55:58-  Directory
kaffeine/2017-Jun-19 18:31:00-  Directory
kafkacat/2017-Jun-19 18:31:01-  Directory
kajongg/2017-Jun-19 18:31:01-  Directory
kakasi/2017-Jun-19 18:31:12-  Directory
kakoune/2017-Jun-19 18:31:13-  Directory
kalarmcal/2017-Jun-19 18:31:13-  Directory
kalgebra/2017-Jun-19 18:31:13-  Directory
kali/2017-Jun-19 18:31:13-  Directory
kalign/2017-Jun-19 18:31:14-  Directory
kalternatives/2011-Oct-06 19:04:02-  Directory
kalzium/2017-Jun-19 18:31:14-  Directory
kamailio/2017-Jun-19 18:31:32-  Directory
kamera/2017-Jun-19 18:31:38-  Directory
kamerka/2017-Jun-19 18:31:38-  Directory
kamoso/2017-Jun-19 18:31:38-  Directory
kanagram/2017-Jun-19 18:31:40-  Directory
kanatest/2017-Jun-19 18:31:40-  Directory
kanif/2017-May-10 13:31:17-  Directory
kanjidic/2017-Jun-19 18:31:41-  Directory
kanjipad/2017-Jun-19 18:31:50-  Directory
kanla/2016-Mar-02 17:55:09-  Directory
kannel/2017-Jun-19 18:31:53-  Directory
kannel-sqlbox/2017-Jun-19 18:31:51-  Directory
kanyremote/2017-Jun-19 18:31:54-  Directory
kapidox/2017-Jun-19 18:31:55-  Directory
kapman/2017-Jun-19 18:31:55-  Directory
kapptemplate/2017-Jun-19 18:31:56-  Directory
kaptain/2017-May-10 13:31:17-  Directory
karchive/2017-Jun-19 18:31:59-  Directory
karlyriceditor/2017-Jun-19 18:32:00-  Directory
kasumi/2017-Jun-19 18:32:00-  Directory
katarakt/2017-Jun-19 18:32:00-  Directory
kate/2017-Jun-19 18:32:01-  Directory
kate4/2017-Jun-19 18:32:02-  Directory
katomic/2017-Jun-19 18:32:02-  Directory
katoob/2017-May-10 13:31:17-  Directory
kauth/2017-Jun-19 18:32:04-  Directory
kawari8/2017-Jun-19 18:32:04-  Directory
kaya/2017-May-10 13:31:17-  Directory
kazam/2017-Jun-19 18:32:05-  Directory
kazoo/2017-Jun-19 18:32:05-  Directory
kbackup/2017-May-10 13:31:17-  Directory
kball/2017-Jun-19 18:32:07-  Directory
kbd/2017-Jun-19 18:32:08-  Directory
kbd-chooser/2017-Jun-19 18:32:07-  Directory
kbdd/2017-Jun-19 18:32:08-  Directory
kbibtex/2017-Jun-19 18:32:08-  Directory
kblackbox/2017-Jun-19 18:32:08-  Directory
kblocks/2017-Jun-19 18:32:12-  Directory
kblog/2017-Jun-19 18:32:12-  Directory
kbookmarks/2017-Jun-19 18:32:13-  Directory
kboot-utils/2016-Mar-02 17:55:12-  Directory
kbounce/2017-Jun-19 18:32:13-  Directory
kbreakout/2017-Jun-19 18:32:13-  Directory
kbruch/2017-Jun-19 18:32:14-  Directory
kbtin/2017-Jun-19 18:32:14-  Directory
kbuild/2017-Jun-19 18:32:15-  Directory
kcachegrind/2017-Jun-19 18:32:15-  Directory
kcalc/2017-Jun-19 18:32:16-  Directory
kcalcore/2017-Jun-19 18:32:19-  Directory
kcalutils/2017-Jun-19 18:32:19-  Directory
kcc/2017-Jun-19 18:32:19-  Directory
kcharselect/2017-Jun-19 18:32:19-  Directory
kcheckers/2017-Jun-19 18:32:19-  Directory
kchmviewer/2017-Jun-19 18:32:20-  Directory
kcm-fcitx/2017-Jun-19 18:32:21-  Directory
kcmutils/2017-Jun-19 18:32:21-  Directory
kcodecs/2017-Jun-19 18:32:22-  Directory
kcollectd/2017-Jun-19 18:32:22-  Directory
kcolorchooser/2017-Jun-19 18:32:22-  Directory
kcometen4/2016-Mar-02 22:59:59-  Directory
kcompletion/2017-Jun-19 18:32:29-  Directory
kconfig/2017-Jun-19 18:32:30-  Directory
kconfigwidgets/2017-Jun-19 18:32:31-  Directory
kcontacts/2017-Jun-19 18:32:31-  Directory
kcoreaddons/2017-Jun-19 18:32:32-  Directory
kcov/2016-Mar-02 22:59:59-  Directory
kcptun/2017-Sep-19 18:29:17-  Directory
kcrash/2017-Jun-19 18:32:32-  Directory
kcron/2017-Jun-19 18:32:32-  Directory
kdbg/2017-Jun-19 18:32:33-  Directory
kdbusaddons/2017-Jun-19 18:32:33-  Directory
kdc2tiff/2017-May-10 13:31:17-  Directory
kde-base-artwork/2016-Mar-02 17:55:15-  Directory
kde-baseapps/2017-Jun-19 18:32:37-  Directory
kde-cli-tools/2017-Jun-19 18:32:38-  Directory
kde-config-systemd/2017-Jun-19 18:32:38-  Directory
kde-dev-scripts/2017-Jun-19 18:32:38-  Directory
kde-dev-utils/2017-Jun-19 18:32:38-  Directory
kde-gtk-config/2017-Jun-19 18:32:39-  Directory
kde-l10n/2017-Jun-19 18:37:28-  Directory
kde-runtime/2017-Jun-19 18:37:30-  Directory
kde-spectacle/2017-Jun-19 18:37:31-  Directory
kde-style-polyester/2011-Oct-06 19:23:52-  Directory
kde-style-qtcurve/2017-May-10 13:31:18-  Directory
kde-wallpapers/2017-Jun-19 18:38:25-  Directory
kde-workspace/2016-Mar-02 23:07:34-  Directory
kde4libs/2017-Jul-22 06:29:15-  Directory
kdeadmin/2017-May-10 13:31:19-  Directory
kdeartwork/2017-Jun-19 18:41:53-  Directory
kdebugsettings/2017-Jun-19 18:41:55-  Directory
kdeclarative/2017-Jun-19 18:41:57-  Directory
kdeconnect/2017-Jun-19 18:41:57-  Directory
kdecoration/2017-Jun-19 18:41:57-  Directory
kded/2017-Jun-19 18:41:58-  Directory
kdeedu-data/2017-Jun-19 18:41:58-  Directory
kdegames/2017-May-10 13:31:20-  Directory
kdegraphics-mobipocket/2017-Jun-19 18:41:58-  Directory
kdegraphics-strigi-analyzer/2016-Mar-02 23:12:59-  Directory
kdegraphics-thumbnailers/2017-Jun-19 18:41:58-  Directory
kdelibs4support/2017-Jun-19 18:42:07-  Directory
kdemultimedia/2017-May-10 13:31:20-  Directory
kdenetwork/2017-May-10 13:31:20-  Directory
kdenetwork-filesharing/2017-Jun-19 18:42:07-  Directory
kdenetwork-strigi-analyzers/2016-Mar-02 23:12:59-  Directory
kdenlive/2017-Jun-19 18:42:17-  Directory
kdepim/2017-Jun-19 18:42:25-  Directory
kdepim-addons/2017-Jun-19 18:42:22-  Directory
kdepim-runtime/2017-Jun-19 18:42:22-  Directory
kdepim4/2017-Jun-19 18:42:31-  Directory
kdepimlibs/2017-Jun-19 18:42:59-  Directory
kdeplasma-addons/2017-Jun-19 18:43:00-  Directory
kdesdk/2017-May-10 13:31:21-  Directory
kdesdk-kioslaves/2017-Jun-19 18:43:00-  Directory
kdesdk-strigi-analyzers/2016-Mar-02 22:17:39-  Directory
kdesdk-thumbnailers/2017-Jun-19 18:43:01-  Directory
kdesignerplugin/2017-Jun-19 18:43:01-  Directory
kdesrc-build/2017-Jun-19 18:43:01-  Directory
kdesu/2017-Jun-19 18:43:05-  Directory
kdesudo/2017-Jun-19 18:43:05-  Directory
kdesvn/2017-Jun-19 18:43:05-  Directory
kdetoys/2017-May-10 13:31:22-  Directory
kdevelop/2017-Jun-19 18:43:08-  Directory
kdevelop-pg-qt/2017-Jun-19 18:43:05-  Directory
kdevelop-php/2017-Jun-19 18:43:06-  Directory
kdevelop-php-docs/2017-May-10 13:31:22-  Directory
kdevelop-python/2017-Jun-19 18:43:07-  Directory
kdevplatform/2017-Jun-19 18:43:11-  Directory
kdewebdev/2017-Jun-19 18:43:11-  Directory
kdewebkit/2017-Jun-19 18:43:16-  Directory
kdf/2017-Jun-19 18:43:17-  Directory
kdgcommons-java/2017-Jun-19 18:43:18-  Directory
kdiagram/2017-Jun-19 18:43:22-  Directory
kdiamond/2017-Jun-19 18:43:23-  Directory
kdiff3/2017-Jun-19 18:43:23-  Directory
kdm-gdmcompat/2011-Oct-06 20:41:28-  Directory
kdnssd/2016-Mar-02 22:18:40-  Directory
kdnssd-kf5/2017-Jun-19 18:43:24-  Directory
kdocker/2017-Jun-19 18:43:24-  Directory
kdoctools/2017-Jun-19 18:43:25-  Directory
kdrill/2017-Jun-19 18:43:25-  Directory
kedpm/2016-Mar-02 17:56:40-  Directory
keepalived/2017-Jun-19 18:43:25-  Directory
keepass2/2017-Jun-19 18:43:28-  Directory
keepassx/2017-Jun-19 18:43:29-  Directory
keepnote/2016-Mar-02 17:56:41-  Directory
kelbt/2017-Jun-19 18:43:30-  Directory
kemoticons/2017-Jun-19 18:43:30-  Directory
kephra/2016-Mar-02 17:56:41-  Directory
kerberos-configs/2017-Jun-19 18:43:31-  Directory
kernel-handbook/2017-Jun-19 18:43:31-  Directory
kernel-package/2017-May-10 13:31:22-  Directory
kernel-patch-viewos/2017-May-10 13:31:22-  Directory
kernel-wedge/2017-Jun-19 18:43:31-  Directory
kerneloops/2017-Jun-19 18:43:31-  Directory
kerneltop/2017-Jun-19 18:43:31-  Directory
kernsmooth/2017-Jun-19 18:43:32-  Directory
ketchup/2017-Jun-19 18:43:32-  Directory
ketm/2017-Jun-19 18:43:33-  Directory
keurocalc/2017-Jun-19 18:43:33-  Directory
kexec-tools/2017-Jun-19 18:43:34-  Directory
key-mon/2016-Mar-02 17:56:42-  Directory
keybinder/2017-Jun-19 18:43:35-  Directory
keybinder-3.0/2017-Jun-19 18:43:34-  Directory
keyboards-rg/2017-Jun-19 18:43:35-  Directory
keychain/2017-Jun-19 18:43:35-  Directory
keylaunch/2011-Oct-06 20:42:12-  Directory
keymapper/2017-May-10 13:31:22-  Directory
keynav/2017-Jun-19 18:43:35-  Directory
keyringer/2017-Jun-19 18:43:36-  Directory
keyrings.alt/2017-Jun-19 18:43:36-  Directory
keystone/2017-Jun-19 18:43:36-  Directory
keysync/2017-Jun-19 18:43:37-  Directory
keytouch-editor/2017-Jun-19 18:43:37-  Directory
keyutils/2017-Jun-19 18:43:40-  Directory
kf5-kdepim-apps-libs/2017-Jun-19 18:43:40-  Directory
kf5-kdepimlibs/2017-Jun-19 18:43:41-  Directory
kf5-messagelib/2017-Jun-19 18:43:42-  Directory
kfilemetadata/2017-Jun-19 18:43:43-  Directory
kfilemetadata-kf5/2017-Jun-19 18:43:43-  Directory
kfloppy/2017-Jun-19 18:43:43-  Directory
kfourinline/2017-Jun-19 18:43:44-  Directory
kfreebsd-10/2017-Jun-19 18:43:47-  Directory
kfreebsd-8/2017-May-10 13:31:23-  Directory
kfreebsd-9/2017-May-10 13:31:23-  Directory
kfreebsd-defaults/2013-Mar-18 16:21:29-  Directory
kfreebsd-kernel-headers/2017-May-10 13:31:23-  Directory
kftpgrabber/2017-May-10 13:31:23-  Directory
kgamma/2016-Mar-02 22:18:41-  Directory
kgamma5/2017-Jun-19 18:43:56-  Directory
kgb/2017-Jun-19 18:44:00-  Directory
kgb-bot/2017-Jun-19 18:43:56-  Directory
kgeography/2017-Jun-19 18:44:01-  Directory
kget/2017-Jun-19 18:44:02-  Directory
kglobalaccel/2017-Jun-19 18:44:03-  Directory
kgoldrunner/2017-Jun-19 18:44:04-  Directory
kgpg/2017-Jun-19 18:44:05-  Directory
kguiaddons/2017-Jun-19 18:44:05-  Directory
khal/2017-Jun-19 18:44:05-  Directory
khangman/2017-Jun-19 18:44:07-  Directory
khard/2017-Jun-19 18:44:10-  Directory
khelpcenter/2017-Jun-19 18:44:12-  Directory
khmer/2017-Jun-19 18:44:26-  Directory
khmerconverter/2017-Jun-19 18:44:27-  Directory
kholidays/2017-Jun-19 18:44:27-  Directory
khotkeys/2017-Jun-19 18:44:32-  Directory
khronos-api/2017-Jun-19 18:44:32-  Directory
khronos-opencl-clhpp/2017-Jun-19 18:44:32-  Directory
khronos-opencl-headers/2017-Jun-19 18:44:38-  Directory
khronos-opencl-man/2016-Mar-02 17:56:47-  Directory
khronos-opengl-man4/2017-Jun-19 18:44:38-  Directory
khtml/2017-Jun-19 18:44:40-  Directory
ki18n/2017-Jun-19 18:44:42-  Directory
kicad/2017-Jun-19 18:47:34-  Directory
kickseed/2017-Jun-19 18:47:36-  Directory
kiconthemes/2017-Jun-19 18:47:44-  Directory
kid/2017-Jun-19 18:47:45-  Directory
kid3/2017-Jun-19 18:47:45-  Directory
kidentitymanagement/2017-Jun-19 18:47:53-  Directory
kidletime/2017-Jun-19 18:47:54-  Directory
kido/2017-Jun-19 18:48:01-  Directory
kig/2017-Jun-19 18:48:02-  Directory
kigo/2017-Jun-19 18:48:02-  Directory
kiki/2017-May-10 13:31:24-  Directory
kiki-the-nano-bot/2017-Jun-19 18:48:02-  Directory
kildclient/2017-Jun-19 18:48:04-  Directory
kile/2017-Jun-19 18:48:04-  Directory
killbots/2017-Jun-19 18:48:05-  Directory
killer/2017-May-10 13:31:24-  Directory
kimageformats/2017-Jun-19 18:48:05-  Directory
kimap/2017-Jun-19 18:48:05-  Directory
kimwitu/2017-Jun-19 18:48:06-  Directory
kimwitu++/2011-Oct-06 20:48:20-  Directory
kimwitu-doc/2011-Oct-06 20:48:22-  Directory
kindleclip/2017-Jun-19 18:48:06-  Directory
kineticstools/2017-Jun-19 18:50:55-  Directory
kinfocenter/2017-Jun-19 18:50:56-  Directory
king/2017-Jun-19 18:50:57-  Directory
king-probe/2017-Jun-19 18:50:56-  Directory
kingston-update-notifier/2017-May-10 13:31:24-  Directory
kinit/2017-Jun-19 18:50:58-  Directory
kino/2017-Jun-19 18:51:11-  Directory
kinput2/2017-Jun-19 18:51:15-  Directory
kio/2017-Jun-19 18:51:20-  Directory
kio-extras/2017-Jun-19 18:51:15-  Directory
kio-ftps/2011-Oct-06 20:48:50-  Directory
kio-gopher/2017-Jun-19 18:51:15-  Directory
kio-mtp/2017-Jun-19 18:51:16-  Directory
kirigami/2017-Jun-19 18:51:39-  Directory
kiriki/2017-Jun-19 18:51:39-  Directory
kismet/2017-Jun-19 18:51:39-  Directory
kissplice/2017-Jun-19 18:51:40-  Directory
kitchen/2017-Jun-19 18:51:42-  Directory
kitemmodels/2017-Jun-19 18:51:42-  Directory
kitemviews/2017-Jun-19 18:51:43-  Directory
kiten/2017-Jun-19 18:52:09-  Directory
kivy/2017-Jun-19 18:52:42-  Directory
kiwi/2017-Jun-19 18:52:42-  Directory
kjobwidgets/2017-Jun-19 18:52:43-  Directory
kjots/2017-Jun-19 18:52:44-  Directory
kjs/2017-Jun-19 18:52:44-  Directory
kjsembed/2017-Jun-19 18:52:45-  Directory
kjumpingcube/2017-Jun-19 18:52:45-  Directory
klatexformula/2017-Jun-19 18:52:46-  Directory
klaus/2017-Jun-19 18:52:48-  Directory
klavaro/2017-Jun-19 18:52:48-  Directory
kldap/2017-Jun-19 18:52:56-  Directory
klein/2017-Jun-19 18:52:57-  Directory
kleopatra/2017-Jun-19 18:52:57-  Directory
klettres/2017-Jun-19 18:52:57-  Directory
klibc/2017-Jun-19 18:52:58-  Directory
klick/2017-Jun-19 18:52:58-  Directory
klickety/2017-Jun-19 18:52:58-  Directory
klines/2017-Jun-19 18:52:58-  Directory
klog/2017-Jun-19 18:52:59-  Directory
klone/2011-Oct-06 20:49:51-  Directory
kluppe/2017-Jun-19 18:52:59-  Directory
klustakwik/2017-Jun-19 18:52:59-  Directory
kmag/2017-Jun-19 18:52:59-  Directory
kmahjongg/2017-Jun-19 18:53:00-  Directory
kmailtransport/2017-Jun-19 18:53:01-  Directory
kmbox/2017-Jun-19 18:53:01-  Directory
kmc/2017-Jun-19 18:53:02-  Directory
kmediaplayer/2017-Jun-19 18:53:02-  Directory
kmenuedit/2017-Jun-19 18:53:02-  Directory
kmer/2017-Jun-19 18:53:03-  Directory
kmess/2017-May-10 13:31:24-  Directory
kmetronome/2017-Jun-19 18:53:04-  Directory
kmfl-keyboards-mywin/2016-Mar-02 17:57:16-  Directory
kmflcomp/2017-Jun-19 18:53:04-  Directory
kmidimon/2017-Jun-19 18:53:04-  Directory
kmime/2017-Jun-19 18:53:05-  Directory
kmines/2017-Jun-19 18:53:05-  Directory
kmix/2017-Jun-19 18:53:05-  Directory
kmldonkey/2017-May-10 13:31:24-  Directory
kmod/2017-Jun-19 18:53:06-  Directory
kmodpy/2017-Jun-19 18:53:06-  Directory
kmousetool/2017-Jun-19 18:53:06-  Directory
kmouth/2017-Jun-19 18:53:06-  Directory
kmplayer/2017-Jun-19 18:53:06-  Directory
kmplot/2017-Jun-19 18:53:07-  Directory
kmymoney/2017-Jun-19 18:53:41-  Directory
knavalbattle/2017-Jun-19 18:53:42-  Directory
knemo/2017-May-10 13:31:24-  Directory
knetwalk/2017-Jun-19 18:53:42-  Directory
knews/2017-Jun-19 18:53:43-  Directory
knewstuff/2017-Jun-19 18:53:43-  Directory
knights/2017-Jun-19 18:53:44-  Directory
knockd/2017-Jun-19 18:53:44-  Directory
knocker/2017-Jun-19 18:53:44-  Directory
knockpy/2017-Jun-19 18:53:44-  Directory
knopflerfish-osgi/2017-Jun-19 18:54:17-  Directory
knot/2017-Jul-22 06:27:46-  Directory
knot-resolver/2017-Jun-19 18:54:18-  Directory
knotifications/2017-Jun-19 18:54:20-  Directory
knotifyconfig/2017-Jun-19 18:54:21-  Directory
knowl.js/2017-Jun-19 18:54:21-  Directory
knowledgeroot/2011-Oct-06 20:52:19-  Directory
knowthelist/2017-Jun-19 18:54:21-  Directory
knutclient/2017-Jun-19 18:54:21-  Directory
ko.tex/2011-Oct-06 20:55:53-  Directory
ko.tex-extra-hlfont/2011-Oct-06 20:52:36-  Directory
ko.tex-unfonts/2017-May-10 13:31:25-  Directory
kobodeluxe/2017-Jun-19 18:54:21-  Directory
kodi/2017-Jun-19 18:54:35-  Directory
kodi-pvr-argustv/2017-Jun-19 18:54:22-  Directory
kodi-pvr-dvbviewer/2017-Jun-19 18:54:22-  Directory
kodi-pvr-hdhomerun/2017-Jun-19 18:54:22-  Directory
kodi-pvr-hts/2017-Jun-19 18:54:22-  Directory
kodi-pvr-iptvsimple/2017-Jun-19 18:54:22-  Directory
kodi-pvr-mediaportal-tvserver/2017-Jun-19 18:54:22-  Directory
kodi-pvr-mythtv/2017-Jun-19 18:54:23-  Directory
kodi-pvr-nextpvr/2017-Jun-19 18:54:23-  Directory
kodi-pvr-njoy/2017-Jun-19 18:54:23-  Directory
kodi-pvr-vdr-vnsi/2017-Jun-19 18:54:23-  Directory
kodi-pvr-vuplus/2017-Jun-19 18:54:23-  Directory
kodi-pvr-wmc/2017-Jun-19 18:54:24-  Directory
kodi-visualization-spectrum/2017-Jun-19 18:54:24-  Directory
kodiplatform/2017-Jun-19 18:54:35-  Directory
koji/2017-Jun-19 18:54:36-  Directory
kolabadmin/2017-May-10 13:31:25-  Directory
kolf/2017-Jun-19 18:54:36-  Directory
kollision/2017-Jun-19 18:54:36-  Directory
kolourpaint/2017-Jun-19 18:54:36-  Directory
kombu/2017-Jun-19 18:54:37-  Directory
komi/2017-Jun-19 18:54:37-  Directory
komparator/2017-Jun-19 18:54:37-  Directory
kompare/2017-Jun-19 18:54:37-  Directory
kon2/2011-Oct-06 21:08:29-  Directory
konclude/2017-Jun-19 18:54:38-  Directory
konfont/2011-Oct-06 21:08:30-  Directory
konquest/2017-Jun-19 18:54:38-  Directory
konsole/2017-Jun-19 18:54:38-  Directory
konsole4/2017-Jun-19 18:54:38-  Directory
kontactinterface/2017-Jun-19 18:54:39-  Directory
konversation/2017-Jun-19 18:54:40-  Directory
konwert/2017-Jun-19 18:54:41-  Directory
kopete/2017-Jun-19 18:55:25-  Directory
kore/2017-Jun-19 18:55:25-  Directory
korundum/2016-Mar-02 22:19:18-  Directory
kosd/2013-Mar-18 16:34:11-  Directory
koules/2017-Jun-19 18:55:25-  Directory
kover/2017-Jun-19 18:55:25-  Directory
kpackage/2017-Jun-19 18:55:26-  Directory
kparts/2017-Jun-19 18:55:27-  Directory
kpartsplugin/2013-Mar-18 16:34:22-  Directory
kpat/2017-Jun-19 18:56:02-  Directory
kpatch/2017-Jun-19 18:56:03-  Directory
kpcli/2017-Jun-19 18:56:03-  Directory
kpeople/2017-Jun-19 18:56:03-  Directory
kphotoalbum/2017-Jun-19 18:56:04-  Directory
kpimtextedit/2017-Jun-19 18:56:05-  Directory
kplayer/2017-May-10 13:31:25-  Directory
kplotting/2017-Jun-19 18:56:05-  Directory
kpmcore/2017-Jun-19 18:56:05-  Directory
kppp/2017-Jun-19 18:56:06-  Directory
kprinter4/2017-Jun-19 18:56:06-  Directory
kpty/2017-Jun-19 18:56:06-  Directory
kqtquickcharts/2017-Jun-19 18:56:07-  Directory
kradio4/2017-Jun-19 18:56:07-  Directory
kraft/2017-Jun-19 18:56:07-  Directory
kraken/2017-Jun-19 18:56:08-  Directory
krank/2016-Mar-02 17:57:29-  Directory
kraptor/2017-Jun-19 18:56:51-  Directory
krb5/2017-Jun-19 18:57:02-  Directory
krb5-appl/2017-May-10 13:31:25-  Directory
krb5-auth-dialog/2017-Jun-19 18:56:52-  Directory
krb5-strength/2017-Jun-19 18:56:52-  Directory
krb5-sync/2017-Jun-19 18:56:52-  Directory
krdc/2017-Jun-19 18:57:22-  Directory
krecipes/2017-Jun-19 18:57:24-  Directory
kredentials/2017-Jun-19 18:57:26-  Directory
kremotecontrol/2017-Jun-19 18:57:26-  Directory
krename/2017-Jun-19 18:57:34-  Directory
kreversi/2017-Jun-19 18:57:35-  Directory
krfb/2017-Jun-19 18:57:35-  Directory
krita/2017-Jun-19 18:57:52-  Directory
kronometer/2017-Jun-19 18:59:26-  Directory
kross/2017-Jun-19 18:59:27-  Directory
kross-interpreters/2017-Jun-19 18:59:26-  Directory
kruler/2017-Jun-19 18:59:27-  Directory
krunner/2017-Jun-19 18:59:27-  Directory
krusader/2017-Jun-19 18:59:29-  Directory
kryo-serializers/2017-Jun-19 18:59:30-  Directory
ksaneplugin/2017-Jun-19 18:59:30-  Directory
kscd/2017-Jun-19 18:59:30-  Directory
kscope/2017-Jun-19 18:59:30-  Directory
kscreen/2017-Jun-19 18:59:31-  Directory
kscreenlocker/2017-Jun-19 18:59:31-  Directory
kservice/2017-Jun-19 18:59:31-  Directory
ksh/2017-Jun-19 18:59:31-  Directory
kshisen/2017-Jun-19 18:59:32-  Directory
kshutdown/2017-Jun-19 18:59:32-  Directory
ksirk/2017-Jun-19 18:59:32-  Directory
ksmtuned/2017-Jun-19 18:59:34-  Directory
ksnakeduel/2017-Jun-19 18:59:34-  Directory
ksnapshot/2016-Mar-02 22:19:27-  Directory
kspaceduel/2017-Jun-19 18:59:34-  Directory
ksplice/2017-May-10 13:31:26-  Directory
ksquares/2017-Jun-19 18:59:34-  Directory
ksshaskpass/2017-Jun-19 18:59:35-  Directory
kst/2017-Jun-19 18:59:49-  Directory
kstars/2017-Jun-19 19:00:22-  Directory
kstart/2017-Jun-19 19:00:25-  Directory
ksudoku/2017-Jun-19 19:00:25-  Directory
ksyntax-highlighting/2017-Jun-19 19:00:25-  Directory
ksysguard/2017-Jun-19 19:00:26-  Directory
ksystemlog/2017-Jun-19 19:00:26-  Directory
kteatime/2017-Jun-19 19:00:26-  Directory
kterm/2017-Jun-19 19:00:27-  Directory
ktexteditor/2017-Jun-19 19:00:57-  Directory
ktextwidgets/2017-Jun-19 19:00:58-  Directory
ktikz/2017-Jun-19 19:00:59-  Directory
ktimer/2017-Jun-19 19:01:00-  Directory
ktnef/2017-Jun-19 19:01:00-  Directory
ktorrent/2017-Jun-19 19:01:00-  Directory
ktouch/2017-Jun-19 19:01:01-  Directory
ktp-accounts-kcm/2016-Mar-02 22:19:32-  Directory
ktp-approver/2017-Jun-19 19:01:01-  Directory
ktp-auth-handler/2017-Jun-19 19:01:02-  Directory
ktp-call-ui/2016-Mar-02 22:19:32-  Directory
ktp-common-internals/2017-Jun-19 19:01:05-  Directory
ktp-contact-list/2017-Jun-19 19:01:07-  Directory
ktp-contact-runner/2017-Jun-19 19:01:07-  Directory
ktp-desktop-applets/2017-Jun-19 19:01:07-  Directory
ktp-filetransfer-handler/2017-Jun-19 19:01:08-  Directory
ktp-kded-integration-module/2017-Jun-19 19:01:08-  Directory
ktp-presence-applet/2013-Mar-18 16:41:54-  Directory
ktp-send-file/2017-Jun-19 19:01:09-  Directory
ktp-text-ui/2016-Mar-02 22:19:33-  Directory
ktuberling/2017-Jun-19 19:01:09-  Directory
kturtle/2017-Jun-19 19:01:10-  Directory
ktux/2016-Mar-02 22:19:33-  Directory
kubrick/2017-Jun-19 19:01:10-  Directory
kumofs/2016-Mar-02 22:19:33-  Directory
kunitconversion/2017-Jun-19 19:01:11-  Directory
kunststoff/2017-May-10 13:31:26-  Directory
kup/2017-Jun-19 19:01:11-  Directory
kupfer/2017-Jun-19 19:01:11-  Directory
kuser/2017-Jun-19 19:01:11-  Directory
kuvert/2017-Jun-19 19:01:11-  Directory
kvirc/2017-Jun-19 19:01:12-  Directory
kvkbd/2017-Jun-19 19:01:12-  Directory
kvmtool/2017-Jun-19 19:01:12-  Directory
kvpm/2017-Jun-19 19:01:12-  Directory
kvpnc/2017-Jun-19 19:01:14-  Directory
kwalify/2017-Jun-19 19:01:14-  Directory
kwallet/2016-Mar-02 22:19:44-  Directory
kwallet-kf5/2017-Jun-19 19:01:15-  Directory
kwallet-pam/2017-Jun-19 19:01:26-  Directory
kwalletcli/2017-Jun-19 19:01:27-  Directory
kwalletmanager/2017-Jun-19 19:01:27-  Directory
kwave/2017-Jun-19 19:01:27-  Directory
kwayland/2017-Jun-19 19:01:53-  Directory
kwayland-integration/2017-Jun-19 19:01:52-  Directory
kwidgetsaddons/2017-Jun-19 19:01:56-  Directory
kwin/2017-Jun-19 19:02:25-  Directory
kwin-style-crystal/2017-May-10 13:31:26-  Directory
kwin-style-dekorator/2016-Mar-02 22:19:45-  Directory
kwindowsystem/2017-Jun-19 19:02:26-  Directory
kwordquiz/2017-Jun-19 19:02:26-  Directory
kwrited/2017-Jun-19 19:02:26-  Directory
kwstyle/2017-Jun-19 19:02:26-  Directory
kwwidgets/2017-May-10 13:31:27-  Directory
kxd/2017-Jun-19 19:02:27-  Directory
kxl/2017-Jun-19 19:02:27-  Directory
kxml2/2017-May-10 13:31:27-  Directory
kxmlgui/2017-Jun-19 19:02:27-  Directory
kxmlrpcclient/2017-Jun-19 19:02:28-  Directory
kxstitch/2017-Jun-19 19:02:28-  Directory
kyotocabinet/2017-Jun-19 19:02:29-  Directory
kyototycoon/2016-Mar-02 22:19:45-  Directory
kytea/2016-Mar-02 22:19:45-  Directory
lighttpd/1.4.35